CW2939 Weather Reports


time (UTC)temp
F
wind
direction
speed
knots
gust
knots
rain 1hr
in
rain 24hr
in
rain mn
in
humidity
%
barometer
mb
20260507031904 55 276 1.7 2.6 0.00 0.00 0.00 81 1010.1
20260507030904 55 302 1.7 2.6 0.00 0.00 0.00 82 1010.0
20260507030404 55 60 2.6 5.2 0.00 0.00 0.00 80 1010.1
20260507024904 55 248 1.7 2.6 0.00 0.00 0.00 83 1010.0
20260507023904 55 262 2.6 2.6 0.00 0.00 0.00 82 1010.0
20260507021903 55 103 0.9 2.6 0.00 0.00 0.00 81 1009.9
20260507021404 55 115 0.9 2.6 0.00 0.00 0.00 81 1010.0
20260507020904 55 127 2.6 2.6 0.00 0.00 0.00 79 1010.0
20260507020404 56 78 1.7 2.6 0.00 0.00 0.00 79 1010.1
20260507013904 56 276 1.7 2.6 0.00 0.00 0.00 80 1010.1
20260507013404 56 259 2.6 5.2 0.00 0.00 0.00 79 1010.2
20260507011404 56 264 2.6 2.6 0.00 0.00 0.00 80 1010.2
20260507010904 56 286 2.6 5.2 0.00 0.00 0.00 78 1010.3
20260507010404 56 289 1.7 2.6 0.00 0.00 0.00 77 1010.3
20260507004904 57 320 0.9 2.6 0.00 0.00 0.00 79 1010.3
20260507004404 57 320 1.7 2.6 0.00 0.00 0.00 80 1010.3
20260507003904 57 320 1.7 2.6 0.00 0.00 0.00 79 1010.3
20260507001904 57 317 0.9 2.6 0.00 0.00 0.00 78 1010.4
20260507000904 58 331 0.9 1.7 0.00 0.00 0.00 78 1010.6
20260507000405 58 324 1.7 2.6 0.00 0.00 0.00 80 1010.6
20260506233904 58 341 1.7 2.6 0.00 0.00 0.00 78 1010.9
20260506233404 58 351 2.6 2.6 0.00 0.00 0.00 77 1011.1
20260506231404 58 355 1.7 2.6 0.00 0.00 0.00 77 1011.0
20260506230904 59 347 1.7 2.6 0.00 0.00 0.00 78 1011.1
20260506230404 59 0 0.0 2.6 0.00 0.00 0.00 81 1011.1
20260506221904 59 310 0.9 2.6 0.00 0.00 0.00 77 1010.9
20260506221404 59 63 0.0 0.0 0.00 0.00 0.00 78 1011.0
20260506220903 59 67 0.0 0.9 0.00 0.00 0.00 78 1010.9
20260506214904 60 29 1.7 2.6 0.00 0.00 0.00 77 1010.9
20260506213404 60 30 0.0 0.9 0.00 0.00 0.00 75 1011.1
20260506210903 61 121 0.9 2.6 0.00 0.00 0.00 74 1010.9
20260506204404 61 149 0.9 2.6 0.00 0.00 0.00 71 1010.6
20260506203404 61 122 2.6 5.2 0.00 0.00 0.00 73 1010.5
20260506201904 61 110 4.3 6.1 0.00 0.00 0.00 75 1010.4
20260506201403 61 97 4.3 6.1 0.00 0.00 0.00 74 1010.3
20260506194404 64 180 0.9 2.6 0.00 0.00 0.00 61 1009.7
20260506193904 64 158 0.9 2.6 0.00 0.00 0.00 58 1009.7
20260506193404 64 134 0.9 5.2 0.00 0.00 0.00 57 1009.6
20260506190404 66 118 1.7 2.6 0.00 0.00 0.00 49 1009.3
20260506184904 67 105 1.7 2.6 0.00 0.00 0.00 46 1009.1
20260506183404 66 126 0.9 2.6 0.00 0.00 0.00 46 1009.0
20260506181904 66 116 0.9 2.6 0.00 0.00 0.00 48 1008.9
20260506181404 66 120 1.7 4.3 0.00 0.00 0.00 48 1009.0
20260506173404 67 121 2.6 10.4 0.00 0.00 0.00 47 1009.1
20260506171904 67 44 6.1 12.2 0.00 0.00 0.00 46 1009.1
20260506170403 68 101 4.3 10.4 0.00 0.00 0.00 45 1009.0
20260506164904 68 85 2.6 10.4 0.00 0.00 0.00 44 1009.0
20260506163904 68 104 6.1 13.0 0.00 0.00 0.00 43 1009.1
20260506163403 69 152 5.2 12.2 0.00 0.00 0.00 42 1009.1
20260506161903 70 133 3.5 10.4 0.00 0.00 0.00 40 1009.1
20260506161404 70 84 2.6 11.3 0.00 0.00 0.00 39 1009.1
20260506160403 69 294 4.3 12.2 0.00 0.00 0.00 41 1009.0
20260506153403 69 112 4.3 14.8 0.00 0.00 0.00 40 1009.3
20260506151904 70 148 2.6 10.4 0.00 0.00 0.00 39 1009.3
20260506151404 70 112 2.6 10.4 0.00 0.00 0.00 38 1009.2
20260506150904 70 86 3.5 8.7 0.00 0.00 0.00 38 1009.3
20260506143403 71 123 5.2 17.4 0.00 0.00 0.00 37 1009.5
20260506141903 71 113 10.4 17.4 0.00 0.00 0.00 36 1009.6
20260506134403 72 127 9.6 17.4 0.00 0.00 0.00 36 1009.9
20260506133904 72 125 7.8 15.6 0.00 0.00 0.00 35 1009.9
20260506130404 71 127 8.7 17.4 0.00 0.00 0.00 37 1009.9
20260506124904 71 130 9.6 19.1 0.00 0.00 0.00 34 1010.0
20260506124404 72 127 10.4 17.4 0.00 0.00 0.00 35 1010.0
20260506123404 72 114 10.4 18.2 0.00 0.00 0.00 34 1010.1
20260506121403 72 120 7.8 15.6 0.00 0.00 0.00 32 1010.1
20260506114903 72 96 7.8 15.6 0.00 0.00 0.00 35 1010.2
20260506111404 72 121 6.1 12.2 0.00 0.00 0.00 33 1010.4
20260506094904 71 125 5.2 10.4 0.00 0.00 0.00 39 1010.8
20260506093903 71 111 7.0 10.4 0.00 0.00 0.00 40 1010.8
20260506093403 71 143 7.8 11.3 0.00 0.00 0.00 38 1010.9
20260506090904 70 97 6.1 11.3 0.00 0.00 0.00 36 1010.6
20260506084404 70 115 5.2 8.7 0.00 0.00 0.00 36 1010.6
20260506081904 69 73 1.7 5.2 0.00 0.00 0.00 36 1010.6
20260506081404 68 64 1.7 4.3 0.00 0.00 0.00 39 1010.5
20260506071904 65 21 0.0 0.9 0.00 0.00 0.00 41 1010.3
20260506070903 64 68 0.0 2.6 0.00 0.00 0.00 42 1010.2
20260506061904 63 329 2.6 8.7 0.00 0.00 0.00 43 1010.3
20260506061403 63 334 5.2 10.4 0.00 0.00 0.00 42 1010.4
20260506060403 63 295 7.8 10.4 0.00 0.00 0.00 43 1010.3
20260506050903 62 44 4.3 8.7 0.00 0.00 0.00 43 1009.8
20260506050404 61 45 6.1 10.4 0.00 0.00 0.00 43 1009.8
20260506044404 62 3 2.6 7.0 0.00 0.00 0.00 42 1009.7
20260506043404 62 2 3.5 7.8 0.00 0.00 0.00 43 1009.9
20260506041903 62 343 2.6 8.7 0.00 0.00 0.00 43 1010.0
20260506040404 62 347 3.5 8.7 0.00 0.00 0.00 42 1009.9
20260506033903 62 297 3.5 7.8 0.00 0.00 0.00 43 1009.9